Theta_e
330 333 339 341 347 349 350 350 351 351 350 351 351 351 350 350 350 350 349 349 349 350 350 349 350 349 350 350 349 349 349 349 349 349 349 348 348 349 349 349 349 349 350 350 350 350 350 351 349 351 348 350 349 348 347 345 343 342 341 340 339 338 338 339 340 341 341 343 345 346 349 352 351 351 350 350 352 352 351 351 351 351 350 351 352
330 333 339 342 347 349 350 350 350 350 351 351 350 350 350 350 350 349 349 349 349 350 349 350 349 349 349 349 349 349 349 349 349 349 348 348 348 348 348 348 348 349 349 349 350 350 349 349 348 349 349 348 346 345 344 342 341 340 340 339 337 335 335 337 337 339 340 339 339 340 341 345 350 351 350 351 351 352 350 350 349 348 346 351 352
332 334 338 341 347 349 349 350 350 350 351 351 351 350 350 349 350 350 349 349 349 349 349 349 349 349 349 349 349 348 348 348 348 348 349 348 348 348 348 348 348 348 349 349 350 349 348 348 348 347 346 345 343 342 341 340 339 338 338 337 336 333 332 333 334 336 336 336 335 335 336 338 343 350 350 351 351 350 349 349 349 349 349 350 350
332 334 338 340 344 346 349 350 350 350 350 350 350 350 349 349 349 349 349 348 349 349 349 348 349 349 349 348 348 348 348 348 347 348 348 348 348 348 348 348 348 348 347 348 348 348 347 346 346 345 343 342 341 340 339 338 337 336 336 335 334 332 331 331 333 332 332 333 332 331 336 338 341 345 349 349 349 349 349 350 349 349 350 350 350
333 335 337 341 346 346 348 350 350 349 349 349 349 349 349 349 349 349 348 348 348 348 349 348 348 348 348 348 348 348 347 347 347 347 346 346 346 346 347 347 347 347 347 348 347 346 345 345 344 343 341 339 339 338 337 336 335 335 335 333 332 330 329 331 332 331 330 329 329 331 335 337 340 340 349 349 349 349 349 349 349 349 348 348 349
334 336 337 340 344 346 346 348 349 349 349 349 348 349 349 349 348 349 348 348 348 348 348 348 348 348 348 348 348 347 347 346 346 346 346 345 345 345 345 346 347 347 346 346 346 345 344 343 342 341 339 338 337 336 335 335 334 334 333 331 330 329 329 332 331 329 326 326 327 332 335 338 338 341 348 349 349 348 349 347 348 348 348 348 349
334 336 337 339 342 345 344 348 349 349 350 349 348 348 349 348 348 348 348 348 348 348 348 348 348 348 348 348 347 347 346 345 345 344 343 343 343 345 345 345 345 346 345 345 344 343 342 341 340 339 338 336 335 334 334 333 332 332 331 329 328 328 330 330 328 326 323 324 329 333 336 337 340 342 348 348 348 347 348 347 347 348 348 348 349
334 334 337 338 340 342 343 348 348 348 348 348 348 348 348 347 347 347 347 347 348 348 348 348 348 348 347 347 346 346 345 344 342 342 341 341 342 342 343 342 343 343 343 343 342 341 340 339 338 336 335 333 332 332 332 331 330 330 329 328 327 328 329 328 324 323 322 323 327 331 335 336 339 344 348 347 349 348 348 348 347 348 348 348 347
332 333 334 337 338 339 342 345 348 348 348 347 348 348 347 347 347 347 348 348 347 347 347 347 347 347 347 346 346 345 343 343 342 341 340 338 339 340 340 340 340 341 341 341 340 340 338 337 336 334 332 331 331 330 329 329 329 328 328 327 326 327 325 324 321 318 318 322 323 327 334 335 338 343 347 347 348 347 348 347 347 347 347 347 346
331 330 331 334 337 337 342 344 347 347 348 347 347 347 347 347 347 347 347 347 347 347 347 347 346 346 346 345 344 343 342 341 341 339 338 338 337 338 338 339 338 338 338 338 338 337 336 334 333 332 331 330 330 328 328 327 327 326 325 326 325 324 322 319 317 316 317 320 321 324 329 331 337 344 345 347 348 347 344 343 345 345 345 346 345
329 328 329 331 332 336 342 346 346 346 347 346 346 347 346 347 347 347 346 346 347 346 346 346 345 345 344 343 343 342 341 339 338 337 337 336 337 337 337 337 336 336 336 336 336 335 334 333 332 331 330 329 327 326 326 325 325 324 323 323 323 322 320 316 312 314 315 318 321 322 325 329 336 343 345 346 346 344 343 342 342 343 343 344 344
328 326 327 328 328 335 341 344 345 345 346 346 345 345 345 346 345 345 344 345 344 344 345 344 344 343 343 342 342 341 339 338 336 335 335 335 335 335 336 335 335 334 334 334 334 334 332 331 330 329 328 327 326 325 324 323 323 322 321 320 321 320 317 313 311 312 314 316 319 321 325 329 335 339 341 342 342 341 340 340 340 340 341 341 342
326 325 326 326 329 333 337 342 342 344 345 345 345 344 344 344 344 343 344 344 344 343 343 343 342 342 341 340 339 338 337 336 335 332 332 333 333 334 334 333 333 333 332 332 332 332 331 330 328 328 327 325 324 323 322 321 321 321 319 319 319 317 314 311 310 312 313 316 318 319 323 330 336 336 337 339 339 339 338 338 339 339 340 339 339
324 325 324 325 327 327 333 336 339 342 343 343 343 343 343 342 342 342 341 341 342 341 342 341 341 341 339 338 338 337 334 333 332 332 332 331 331 332 332 332 332 332 331 331 331 330 329 329 327 326 325 324 323 322 321 320 319 319 318 317 316 313 309 308 309 310 313 313 317 318 321 327 334 335 336 337 337 338 337 337 336 336 337 337 337
324 323 324 324 326 329 328 333 336 337 340 341 341 342 342 342 342 340 338 338 339 340 340 338 338 336 336 336 337 334 332 332 331 332 331 331 331 331 330 331 331 331 330 330 330 329 328 328 328 326 324 323 322 321 320 319 318 317 316 315 314 311 307 306 308 309 311 312 314 318 321 325 332 333 334 335 335 335 335 335 335 334 334 334 334
322 321 321 323 325 327 331 329 331 331 335 337 338 339 340 341 341 340 338 337 337 338 338 336 335 335 335 334 333 332 332 331 331 331 331 330 330 330 330 330 330 330 330 330 329 328 328 327 326 324 323 322 321 319 318 317 316 315 314 313 311 310 306 304 306 308 309 311 312 316 319 325 330 331 332 332 333 333 333 333 333 333 333 333 332
320 320 321 322 322 325 328 330 331 327 328 330 333 335 337 339 339 339 338 337 337 338 336 335 334 333 333 333 332 332 332 331 330 330 330 329 328 328 328 328 328 328 328 328 328 328 327 326 325 323 322 322 320 318 317 315 314 313 312 311 310 308 305 302 304 305 308 310 310 315 319 326 328 330 330 331 330 331 332 331 331 331 331 332 332
318 319 321 322 322 323 325 327 329 332 332 330 327 331 334 336 336 337 337 336 336 336 335 335 333 334 334 333 332 331 331 329 329 329 329 328 328 328 328 328 328 327 327 327 327 326 325 324 323 322 321 320 319 317 315 314 313 311 310 309 307 306 304 302 302 303 307 309 310 314 320 323 327 328 329 329 329 329 330 330 330 330 330 330 330
316 316 319 320 321 323 324 324 325 328 329 330 331 332 327 331 333 334 334 335 335 334 334 333 332 333 332 331 329 328 327 328 329 329 328 328 328 327 328 328 327 328 327 326 325 324 323 322 321 320 319 318 317 316 314 312 311 309 308 306 304 301 300 300 301 302 305 308 310 314 320 322 326 327 327 327 326 328 328 328 329 329 329 329 329
315 316 317 319 321 321 322 323 324 325 326 327 328 330 327 325 329 330 331 332 332 332 331 329 327 327 327 326 324 324 323 325 322 326 325 327 326 325 327 327 327 326 325 324 323 322 322 321 321 320 319 317 316 314 312 310 309 308 306 304 300 298 299 299 300 301 303 306 309 314 319 321 325 326 326 325 326 326 326 327 328 327 328 328 328
313 314 316 318 318 320 320 322 322 323 324 325 326 327 329 324 325 325 326 328 329 328 328 324 321 320 322 319 318 324 324 325 325 326 320 326 320 320 325 326 325 324 323 322 321 320 321 320 318 317 316 314 312 311 310 309 307 306 303 300 297 298 297 298 298 300 302 305 308 315 318 320 323 325 325 325 325 325 325 326 326 327 327 327 326
314 314 315 316 317 318 320 320 320 320 322 323 324 324 327 326 328 329 330 328 324 323 326 327 319 326 317 320 320 318 318 318 320 318 321 321 321 318 323 325 324 322 321 321 320 319 318 316 314 312 309 306 301 299 301 304 304 303 300 297 297 297 297 297 297 298 300 304 307 313 317 319 322 325 325 325 324 324 325 325 325 326 326 326 326
314 314 314 315 316 318 319 319 320 319 320 321 322 323 325 326 325 325 325 322 324 324 324 322 321 319 318 316 315 314 314 314 315 315 316 315 320 317 321 323 322 321 320 320 319 318 317 315 312 309 305 301 298 298 297 297 297 296 295 296 296 296 296 296 296 296 298 303 307 311 316 318 321 323 324 324 324 324 325 325 324 324 324 325 325
314 315 315 315 315 316 317 318 319 318 318 320 321 322 323 323 323 322 323 323 323 320 319 317 316 314 313 313 312 311 311 312 311 310 312 317 318 316 319 319 319 319 318 318 317 315 314 312 308 304 299 297 297 296 296 296 296 296 296 295 295 295 296 295 296 296 296 300 307 310 314 318 320 322 324 324 323 323 324 324 323 323 324 324 324
314 315 314 314 314 315 317 316 318 318 318 318 319 321 321 320 320 320 320 320 319 317 315 314 312 310 309 310 309 308 308 310 311 312 312 312 313 314 313 312 311 310 306 306 304 302 300 299 298 297 297 297 297 296 296 296 295 295 295 294 294 294 294 295 294 295 296 298 305 308 312 316 319 322 323 324 323 323 323 323 323 323 323 323 323
310 311 313 314 314 314 316 316 316 316 317 318 320 320 318 321 320 317 317 316 316 314 312 311 309 307 306 306 306 307 307 307 308 307 307 307 307 307 306 305 305 303 301 299 297 297 296 296 296 296 295 296 296 296 296 295 295 294 294 294 294 294 294 294 294 294 295 297 303 307 309 313 317 320 322 323 323 323 323 322 322 323 323 322 323
308 311 312 313 313 313 314 315 314 314 315 317 318 318 319 320 320 315 316 314 313 312 310 309 307 304 304 305 306 305 305 305 304 304 304 303 304 302 302 301 301 299 297 297 296 295 296 295 295 295 295 295 294 294 294 294 294 294 294 294 293 293 294 294 294 294 294 295 298 305 308 312 316 319 320 322 322 322 322 322 322 322 322 322 322
308 308 310 311 311 311 313 313 314 314 314 315 316 316 318 318 316 313 314 312 310 311 309 307 305 302 302 303 305 304 304 303 303 302 301 299 301 299 298 298 297 296 295 296 295 295 294 295 295 295 294 294 294 294 293 293 293 293 294 293 293 293 293 293 293 293 294 295 297 303 307 310 313 317 319 321 322 322 322 321 322 322 322 321 321
306 307 308 309 310 310 311 312 313 313 314 314 315 315 315 316 314 314 314 311 310 310 308 305 303 301 301 302 303 302 302 302 301 301 297 298 297 296 296 296 295 295 295 294 295 295 294 294 294 294 294 294 293 293 293 292 293 292 293 293 293 293 293 293 293 293 294 294 296 300 305 309 312 315 317 319 320 320 321 320 321 320 320 320 320
305 307 307 307 308 309 310 311 312 313 313 312 314 314 313 313 314 314 314 311 309 308 305 303 303 300 299 300 301 302 301 300 300 298 296 296 295 295 295 294 294 294 294 294 294 294 294 293 293 293 293 293 293 293 292 292 292 292 292 292 292 292 292 293 293 293 293 294 295 297 301 306 311 314 315 316 317 318 320 320 320 319 319 319 319
304 304 306 306 307 307 308 310 311 312 312 310 312 312 312 312 312 312 312 311 309 306 303 302 301 300 299 299 300 301 300 299 298 296 296 294 294 294 294 293 293 293 294 294 293 294 293 293 294 293 293 293 293 293 291 291 291 291 291 292 292 292 292 292 293 293 293 293 294 296 299 303 307 310 312 313 314 316 318 318 317 317 319 319 319
303 303 305 306 305 305 307 308 310 311 311 311 311 311 311 312 312 311 310 311 306 305 303 301 300 299 299 299 299 299 299 298 298 295 295 293 293 292 293 293 293 293 293 293 293 293 293 292 292 292 292 293 292 291 291 291 290 290 291 291 291 292 292 292 292 292 293 293 294 295 297 299 302 306 309 311 312 312 313 313 314 315 317 318 318
304 304 304 303 303 304 305 306 309 310 309 310 310 311 311 311 311 309 309 309 305 304 303 301 300 299 298 298 298 298 298 297 296 295 295 293 293 292 292 293 293 293 293 293 293 293 292 292 292 291 291 291 291 290 290 290 290 290 290 290 291 291 291 292 292 292 293 294 294 294 296 297 298 300 304 306 307 308 309 310 312 313 314 315 317
304 304 302 301 303 304 304 305 307 308 309 309 309 310 310 310 310 309 309 307 304 303 303 302 300 298 297 298 298 297 297 296 296 295 294 293 292 292 292 292 292 293 293 293 292 292 292 292 291 291 291 291 290 290 289 290 289 289 290 290 291 290 291 291 291 292 292 293 293 294 295 295 296 296 298 301 304 305 306 308 309 310 311 313 314
303 302 302 302 302 302 302 302 304 306 308 308 308 309 309 308 308 307 306 305 304 303 303 302 300 298 297 297 297 297 296 296 296 294 293 292 292 291 291 292 292 292 292 292 292 292 291 291 291 290 291 290 291 290 290 290 289 289 289 290 290 290 291 291 291 292 292 292 293 293 294 295 294 294 294 296 299 300 302 304 307 308 309 310 311
302 302 302 302 301 301 302 302 302 304 306 307 307 308 308 307 307 305 305 304 303 302 302 301 300 298 297 297 297 297 296 295 295 295 293 292 291 291 291 291 292 292 292 291 291 291 290 290 291 291 289 289 290 289 290 289 289 289 289 289 290 290 290 291 291 291 291 292 292 293 293 293 294 293 292 293 295 297 298 299 303 305 306 306 307
302 302 302 301 301 301 301 301 301 302 304 305 306 307 306 306 305 304 303 303 302 302 301 300 299 298 297 296 296 296 296 295 295 295 293 292 291 291 290 291 292 292 291 291 291 291 290 290 289 289 290 290 291 290 289 289 289 289 289 289 290 290 291 291 291 290 291 292 291 291 292 292 292 291 292 291 292 293 294 296 297 300 301 303 305
301 301 302 301 301 301 300 300 301 301 302 303 304 305 305 304 303 302 302 300 301 301 300 299 298 297 297 296 296 296 296 295 294 294 294 292 292 291 290 290 291 291 291 290 291 291 290 290 289 289 288 290 289 289 289 289 289 289 288 288 289 290 290 291 291 290 291 290 291 291 291 291 291 291 291 291 291 291 291 292 293 295 297 299 302
300 300 301 301 301 300 300 300 300 300 300 301 303 303 302 301 299 299 298 299 299 299 298 297 297 297 296 297 296 296 296 295 294 294 293 292 291 290 289 290 291 290 290 290 290 289 289 289 289 288 288 289 290 290 289 289 288 288 288 287 288 289 289 289 289 290 290 291 291 290 291 290 290 290 290 290 290 290 290 291 290 291 293 295 298
299 299 300 300 300 300 300 299 300 299 299 299 300 300 299 297 296 295 295 296 297 296 296 296 297 296 296 297 297 296 296 294 294 294 294 292 291 289 289 290 290 290 290 289 289 289 289 288 289 289 289 288 288 288 289 289 288 288 288 288 289 289 288 288 289 289 289 290 290 290 290 289 290 289 289 290 290 290 289 289 290 290 291 291 293
297 298 298 299 300 299 299 298 299 299 299 298 298 298 297 296 296 294 295 295 295 296 295 296 296 296 296 296 297 296 296 295 294 293 293 292 291 290 289 289 290 290 290 290 290 290 289 289 289 289 288 288 287 287 288 289 289 286 288 288 288 289 290 288 288 289 289 289 289 289 289 289 289 289 289 289 289 289 289 289 289 289 290 290 289
295 296 297 298 299 299 298 299 298 298 298 298 298 298 298 297 296 295 296 296 295 294 294 295 295 295 296 296 296 296 296 295 294 293 293 292 291 289 289 289 289 290 290 291 290 289 288 288 288 287 288 288 288 287 287 289 289 288 286 286 286 287 289 288 288 288 288 289 289 289 289 289 289 288 288 289 289 288 288 288 288 288 289 289 289
296 296 297 298 298 298 299 299 298 298 298 298 299 298 298 298 297 297 296 296 296 296 296 296 296 295 295 295 295 296 295 295 294 293 292 292 291 290 289 289 289 290 289 288 289 288 287 287 288 288 286 287 288 287 287 288 291 289 290 288 285 285 287 287 288 287 288 288 288 289 288 289 288 288 288 288 288 288 288 288 288 288 288 288 288
294 294 295 296 297 298 298 298 298 298 298 298 298 299 299 299 298 297 297 296 295 295 295 295 295 294 293 294 295 295 295 294 294 293 293 292 291 290 290 289 289 290 289 288 288 288 287 287 287 288 289 286 286 286 287 285 286 290 289 289 286 287 285 285 287 288 286 287 288 288 288 288 288 288 288 288 287 287 287 287 287 287 287 288 288
294 294 295 296 296 297 298 298 298 297 298 298 298 299 298 297 295 294 295 293 293 294 293 292 293 293 293 292 293 294 294 294 293 293 293 292 292 291 290 289 289 289 289 289 288 288 287 287 288 287 288 289 286 287 286 285 285 286 290 284 284 285 289 288 286 286 285 286 286 287 289 287 287 287 287 287 287 287 287 287 287 287 287 287 288
293 295 295 296 296 297 298 298 298 297 297 297 298 298 297 296 294 293 292 292 292 291 291 291 291 291 292 293 293 293 293 294 293 293 293 292 291 291 290 289 289 288 289 289 288 288 287 286 287 287 288 289 288 286 285 287 285 287 286 288 292 294 289 286 287 287 284 287 287 286 286 286 286 287 286 286 287 287 287 286 286 286 287 287 287
294 294 294 294 295 296 297 297 297 297 297 297 297 297 296 296 295 295 295 294 293 293 295 295 294 293 294 293 292 293 293 293 293 293 292 292 292 291 290 290 289 288 289 288 288 287 287 287 287 286 288 288 288 287 287 286 285 285 285 286 286 284 289 287 287 286 285 285 284 285 285 285 285 286 286 286 286 286 286 286 286 286 286 287 287
293 292 293 293 294 295 295 296 296 296 296 296 296 297 296 296 295 295 295 295 295 295 294 294 295 294 293 293 292 292 292 293 292 292 292 292 291 291 290 290 289 288 288 288 287 288 288 288 287 287 287 287 288 289 288 286 286 286 285 285 284 284 285 286 289 291 290 286 285 284 284 284 285 285 285 285 285 286 286 286 286 286 286 287 287
291 292 292 293 294 294 295 295 295 295 295 295 295 296 296 296 295 295 295 295 296 296 294 294 293 293 292 293 292 291 291 292 292 292 292 292 291 291 290 289 289 288 288 288 288 288 287 287 286 286 285 285 286 288 287 285 287 287 284 283 284 285 284 285 284 288 288 288 286 284 285 284 285 285 285 285 285 285 285 285 285 285 286 286 286
289 290 291 292 292 293 293 293 294 294 294 294 295 295 295 295 294 294 294 295 295 293 293 292 292 292 292 292 291 291 290 290 291 291 291 291 291 291 290 289 289 288 288 288 288 287 287 287 287 286 286 286 285 286 287 287 286 287 287 286 285 284 285 285 286 284 284 288 288 285 286 285 283 284 283 284 285 285 285 285 285 285 285 286 285
289 290 291 291 291 292 292 292 293 293 293 294 294 294 295 295 294 294 294 294 294 292 291 291 291 290 291 291 290 290 290 290 290 290 291 291 291 290 290 289 289 288 288 288 287 287 286 287 287 287 286 286 285 285 286 287 286 286 286 286 287 286 287 285 285 284 287 284 282 283 283 284 285 285 284 282 284 284 284 284 284 284 285 285 285
Wind_Speed
8 8 6 7 12 14 15 16 16 16 16 15 14 14 13 13 13 11 10 10 10 10 10 9 9 9 9 9 9 8 8 8 8 8 8 8 7 7 6 5 5 5 6 7 8 9 10 12 11 13 13 15 16 16 15 14 14 13 13 14 14 14 14 14 14 14 14 13 14 13 13 11 11 11 11 11 11 10 10 9 7 6 7 9 11
14 9 6 7 11 14 15 16 16 16 16 16 15 14 14 14 13 13 11 11 11 11 11 10 10 9 8 9 9 9 8 9 9 8 9 8 7 7 7 6 6 7 8 10 11 11 13 13 13 14 14 15 15 14 13 14 13 12 13 13 14 14 14 14 13 13 13 13 12 12 12 12 11 11 10 11 10 10 10 9 8 6 7 10 11
8 7 6 8 11 12 15 16 16 16 16 16 15 14 14 13 13 13 12 11 11 11 11 11 10 10 10 10 9 9 9 9 9 10 10 10 9 8 7 7 7 8 10 11 12 13 14 14 14 15 15 13 13 13 13 13 11 11 12 12 13 13 13 13 12 12 12 12 11 9 9 10 11 10 10 10 10 10 9 8 9 8 8 12 11
11 7 7 8 10 11 12 14 14 14 15 14 14 14 14 13 13 12 12 12 11 11 11 11 10 11 11 10 10 10 10 10 10 11 11 11 11 10 9 9 9 10 10 12 12 13 13 14 15 15 13 12 12 11 11 10 10 10 11 11 12 12 12 12 11 11 11 11 10 7 5 5 6 10 7 9 10 10 8 8 9 11 12 12 13
10 9 8 8 10 10 11 12 14 14 15 14 14 14 13 13 13 12 13 12 12 12 11 11 11 11 11 11 11 11 11 11 11 11 10 10 10 10 9 9 10 10 10 11 12 12 13 13 13 13 13 11 11 11 10 10 10 10 10 10 11 11 11 11 11 10 10 10 9 5 4 5 3 7 6 7 9 10 8 9 10 11 11 12 12
10 9 8 7 7 11 10 12 15 15 14 14 14 14 13 13 12 12 12 12 13 12 11 11 11 11 12 12 12 12 12 12 11 10 10 10 10 10 9 9 9 10 10 11 11 13 12 12 12 13 12 10 10 10 9 9 9 10 10 10 10 10 10 10 10 10 9 7 7 4 4 5 4 3 7 7 8 9 8 10 10 11 11 11 11
11 10 8 8 6 7 10 12 15 15 15 15 14 13 13 13 12 12 12 12 12 12 12 12 12 12 13 13 13 12 12 11 10 9 9 8 9 9 9 9 10 10 10 10 10 12 12 11 11 12 11 10 10 9 10 10 10 10 10 10 10 10 10 10 10 9 8 4 3 3 3 4 4 2 6 7 8 9 11 11 11 10 11 11 11
9 9 9 9 7 9 11 12 14 16 15 14 14 14 14 13 13 13 12 12 12 12 12 13 13 13 13 13 12 12 11 10 9 8 8 7 8 8 8 7 8 8 8 9 8 11 11 11 11 11 10 10 10 10 10 10 10 11 10 10 10 10 10 10 10 9 8 5 4 3 3 4 4 3 6 9 9 10 11 11 10 10 11 12 9
9 8 7 9 7 11 12 12 14 16 15 15 14 15 14 14 14 13 13 13 12 13 13 13 13 13 13 12 11 11 10 9 9 8 7 7 6 6 6 6 6 7 6 7 6 9 10 11 11 10 10 10 10 10 10 11 11 11 11 11 11 10 10 10 9 7 5 4 4 4 4 5 4 3 6 9 11 12 13 10 9 11 13 11 8
9 6 5 5 6 11 12 13 16 16 17 16 15 14 14 13 13 14 14 13 12 13 13 13 13 12 12 11 11 10 9 9 8 7 6 6 5 6 7 6 6 7 7 6 7 9 10 10 10 10 10 10 11 11 11 11 11 11 11 12 11 11 11 10 9 7 4 4 4 4 5 6 3 3 8 9 13 14 13 10 9 9 9 10 11
9 6 4 4 5 8 12 14 14 14 15 14 15 14 14 14 13 13 13 13 13 13 12 11 11 11 11 10 10 10 9 8 7 7 7 7 6 6 7 7 6 6 7 7 9 10 10 10 10 10 11 11 11 11 12 12 11 11 11 11 12 12 11 10 7 5 5 5 5 4 5 6 3 5 9 12 14 14 10 9 10 11 13 13 13
9 5 5 4 5 7 10 11 12 13 13 14 14 13 14 14 14 13 13 12 12 11 11 11 11 11 10 10 10 10 9 8 7 7 8 8 8 7 7 7 7 8 8 9 9 10 10 10 11 11 11 11 11 11 12 11 11 11 11 11 11 11 11 10 5 4 4 5 6 5 5 6 6 7 10 10 10 10 10 10 11 11 12 12 12
9 5 5 5 5 5 7 9 9 11 11 14 15 15 15 14 13 13 12 12 13 11 11 11 11 11 11 10 10 9 8 8 9 8 8 9 9 8 8 9 9 9 9 9 10 10 10 10 10 11 11 11 11 11 12 11 11 12 12 12 11 11 10 9 4 5 5 5 5 6 6 5 5 6 6 6 7 6 7 8 11 9 12 12 12
8 6 4 4 5 5 7 8 8 7 9 12 13 13 16 14 14 14 13 12 13 12 13 12 12 13 12 11 10 11 11 10 9 9 9 9 9 9 9 9 9 10 10 10 10 10 10 11 11 11 11 11 12 12 12 12 12 12 12 12 11 11 9 7 6 5 5 5 5 6 6 5 5 8 6 7 7 8 7 8 11 10 11 11 11
7 6 5 4 4 5 7 7 7 7 7 8 10 10 12 12 14 12 13 14 12 13 14 13 13 12 11 12 12 9 8 9 10 10 9 9 9 9 10 10 10 10 11 11 11 11 11 11 11 11 11 11 11 11 12 12 12 12 13 12 12 11 9 4 4 4 5 5 4 5 5 5 6 6 7 6 7 6 8 10 10 10 10 10 10
6 6 4 4 4 4 5 6 7 7 7 8 8 8 9 9 8 11 13 12 14 14 11 12 11 11 11 11 10 11 11 11 11 11 10 11 10 11 11 11 11 11 12 12 12 12 12 12 12 12 12 11 11 11 12 12 13 13 13 12 12 12 11 5 4 4 4 4 4 5 5 5 8 6 6 6 6 6 8 9 9 10 10 10 10
5 4 6 6 5 4 5 5 5 7 6 8 9 8 9 10 10 10 12 12 11 10 11 12 11 13 12 11 11 10 11 11 12 12 12 11 11 11 11 11 12 12 12 12 12 13 13 13 13 12 12 12 12 12 12 12 13 12 12 12 12 12 10 6 4 4 4 5 4 4 4 5 8 6 6 6 5 5 9 9 9 9 9 9 10
5 6 7 6 6 5 4 5 5 5 6 6 8 9 8 9 10 9 10 11 10 10 10 11 12 11 10 10 9 9 10 12 12 12 12 12 12 11 12 12 12 12 13 13 13 13 13 13 13 12 12 12 12 12 13 13 13 13 12 12 12 12 10 8 5 4 4 4 4 4 4 9 8 7 6 6 6 6 9 9 9 8 8 8 9
5 6 6 6 7 6 6 5 5 5 6 5 5 7 8 8 9 8 9 9 10 9 10 10 9 9 9 8 8 9 9 10 11 12 12 11 10 10 11 13 13 13 13 13 13 13 13 13 12 12 12 12 12 13 13 12 12 13 12 12 11 10 9 6 5 4 4 4 4 4 6 10 8 6 6 6 5 8 9 9 8 8 8 8 8
4 6 7 6 6 7 6 5 5 6 6 5 5 5 6 7 8 8 8 9 10 9 9 9 9 8 8 8 9 8 8 8 10 9 9 10 10 8 10 12 13 13 13 13 13 13 13 13 13 13 13 13 13 13 13 12 12 12 12 11 10 7 5 4 4 5 3 4 4 4 8 10 9 7 6 6 7 9 8 8 8 8 8 8 8
5 8 8 7 7 7 8 6 6 7 6 6 6 6 6 6 5 7 7 8 8 9 9 9 8 7 7 8 9 6 5 5 6 5 8 7 8 8 9 12 13 13 13 13 13 13 13 13 13 13 13 13 12 13 13 12 12 12 11 10 8 5 4 4 4 3 4 3 4 5 9 9 9 7 7 7 9 8 8 8 8 8 9 9 9
8 6 8 8 8 8 9 8 6 8 7 6 5 5 6 6 5 5 5 6 7 8 7 7 6 5 8 7 5 4 3 3 4 5 5 6 6 8 9 11 13 13 13 13 13 13 13 13 13 13 13 12 11 5 6 10 12 11 10 8 5 4 4 4 3 3 3 3 3 6 9 9 8 8 8 8 8 8 8 8 8 8 9 9 9
10 8 8 11 9 8 8 9 9 7 7 7 6 5 6 5 5 5 5 5 6 7 6 7 6 6 6 6 4 4 4 3 3 4 4 5 6 8 9 10 12 11 12 12 12 13 13 13 13 13 12 11 5 4 4 3 5 8 6 4 4 4 4 4 3 3 3 3 3 8 8 8 8 8 8 8 8 7 8 8 8 8 8 9 9
11 10 8 8 9 9 11 9 10 9 7 5 5 5 4 5 4 4 4 4 5 5 6 6 6 6 6 5 4 4 4 3 5 7 6 4 4 7 9 10 10 9 10 9 11 12 13 13 13 11 8 4 4 4 4 3 3 3 3 4 4 4 4 3 3 3 2 3 3 8 8 8 8 8 7 7 8 7 8 8 8 8 8 9 9
9 7 7 11 12 12 11 10 10 9 9 6 6 6 5 4 5 5 5 4 5 5 5 6 6 7 6 5 5 5 4 3 4 3 3 3 3 3 4 3 3 5 5 5 4 4 5 5 5 5 3 4 4 3 3 3 3 3 4 3 4 3 3 3 3 3 2 2 4 8 8 8 8 8 7 8 8 8 8 8 8 9 9 9 9
5 7 12 10 12 11 11 9 10 10 10 8 8 8 7 11 9 6 5 4 5 5 5 5 5 6 6 5 5 5 5 4 4 4 3 3 4 3 3 3 4 4 3 4 3 3 3 3 4 4 3 3 4 3 3 3 3 3 3 3 3 3 2 2 2 2 2 2 4 7 7 7 7 8 7 8 8 8 8 8 9 9 10 9 9
8 10 6 8 9 10 13 11 11 11 12 9 7 8 10 10 10 6 6 5 4 6 5 5 5 6 6 6 7 6 5 5 4 4 4 3 4 3 3 3 4 3 2 4 4 3 3 3 3 4 3 4 4 4 4 4 3 4 3 3 3 2 2 2 2 2 2 2 3 7 7 7 7 7 8 8 8 8 8 8 9 9 9 9 8
7 9 8 9 9 12 13 12 12 12 10 10 9 9 11 11 9 8 6 6 6 6 6 5 6 6 7 6 6 6 7 6 5 5 5 4 4 3 3 3 3 3 3 2 4 3 3 3 4 4 4 3 4 4 4 4 3 3 3 3 2 2 2 2 2 2 2 2 2 6 7 7 8 8 9 9 9 9 8 7 9 9 10 9 8
11 10 9 9 10 10 12 14 12 14 11 11 11 9 9 9 9 9 8 8 7 6 6 6 6 6 6 7 7 7 6 6 7 6 4 5 4 4 4 3 3 3 3 3 3 5 4 3 3 4 3 4 3 4 3 3 3 2 2 3 2 2 2 2 2 2 2 2 2 4 7 7 8 8 9 10 10 10 9 8 9 9 8 9 8
16 10 9 9 8 10 13 14 14 14 12 12 11 10 13 10 10 10 8 9 7 7 7 7 6 7 7 7 8 7 8 8 7 5 6 6 5 4 4 4 4 4 4 4 3 3 5 4 3 3 4 3 3 3 3 3 3 2 2 2 2 2 2 2 2 2 2 2 2 3 7 7 8 9 10 10 11 11 10 9 10 10 9 9 9
11 11 10 9 9 10 12 12 13 13 11 14 10 11 10 10 10 8 8 10 8 7 7 7 7 7 7 8 8 8 8 7 7 7 6 6 5 5 5 4 4 4 4 4 3 3 3 3 4 4 4 3 3 3 2 3 3 2 2 2 2 2 2 2 2 2 2 2 2 2 3 7 9 9 10 11 11 12 12 12 12 11 10 9 9
11 16 11 7 9 13 12 12 13 14 14 13 12 11 12 11 10 9 10 9 9 8 7 7 8 7 8 9 8 8 8 7 9 8 7 7 6 6 5 6 5 4 4 4 4 3 4 4 3 3 3 3 3 3 2 2 3 2 1 2 2 2 2 2 2 2 2 2 2 2 3 4 9 11 11 11 12 12 12 12 11 11 11 11 10
11 14 10 10 14 11 11 13 12 13 14 15 13 11 9 10 11 11 9 11 8 8 9 9 8 8 8 9 9 9 8 9 8 9 8 7 7 7 6 6 5 4 4 5 6 5 4 4 4 3 3 3 3 3 2 2 3 2 2 2 2 2 2 2 2 3 3 3 2 2 3 3 4 9 12 13 13 12 12 12 12 11 11 11 11
9 7 9 13 12 8 10 8 11 13 15 10 10 9 11 10 10 9 10 9 8 9 9 8 8 8 8 10 9 10 9 7 9 8 8 8 7 7 7 6 5 6 5 5 5 4 5 4 4 4 3 3 3 4 3 3 2 2 2 2 2 2 2 3 3 3 2 3 2 2 3 3 3 4 5 11 13 13 13 12 12 12 12 12 11
9 9 14 18 11 11 9 8 12 12 13 11 13 12 10 9 8 8 8 9 9 9 8 8 8 8 8 9 10 10 10 9 9 9 8 8 8 7 7 6 6 6 5 4 5 4 4 5 5 5 3 3 2 3 3 3 3 3 3 2 3 3 3 3 3 3 3 2 2 3 3 3 4 4 4 4 8 14 13 13 12 12 12 12 12
14 14 13 9 12 11 11 13 11 13 12 14 11 10 9 8 8 8 8 9 8 8 8 9 8 8 9 9 10 10 10 10 10 10 9 8 8 8 7 6 8 6 5 5 5 6 5 5 4 4 6 4 4 3 2 4 3 4 3 3 3 3 4 3 3 3 2 2 3 3 3 4 4 4 4 4 5 8 14 12 12 12 12 12 11
12 11 13 12 12 13 13 13 14 15 14 13 11 10 9 9 9 8 7 7 8 8 7 7 8 9 8 8 10 10 11 11 11 10 9 9 8 8 7 8 7 7 7 6 5 5 6 5 4 4 3 4 4 5 3 3 4 4 3 3 3 3 3 3 3 3 3 4 4 4 4 4 4 4 4 4 4 4 10 12 12 12 12 11 11
12 13 13 14 14 12 13 14 13 11 10 10 11 10 8 7 6 6 7 8 8 7 6 6 8 8 8 9 10 10 10 11 11 10 9 9 8 8 8 9 8 7 7 6 6 5 4 5 6 3 3 3 4 5 4 3 3 4 4 4 3 3 3 3 3 3 3 5 4 4 4 3 4 4 4 4 4 4 4 7 10 11 12 11 11
11 13 13 13 11 12 12 14 13 11 11 10 9 8 7 7 5 6 8 8 7 7 7 7 8 7 9 9 10 10 10 10 10 11 10 9 9 8 8 9 8 8 8 7 6 6 5 5 6 5 2 1 2 3 4 5 5 4 4 4 3 3 3 3 2 3 3 3 4 4 3 3 4 3 4 4 4 4 5 4 4 4 6 13 11
10 10 13 11 12 12 11 11 11 11 9 8 8 8 7 8 8 6 8 9 7 8 8 8 7 9 9 10 10 9 9 9 10 10 9 9 9 9 9 9 8 8 9 8 8 8 9 9 7 7 6 3 2 3 4 6 6 7 6 5 4 3 4 3 3 3 3 3 3 3 4 3 3 4 4 4 4 4 5 4 4 4 4 8 12
9 9 10 12 14 13 12 15 11 10 10 10 10 10 11 9 7 10 11 9 10 9 9 9 9 9 10 10 10 9 9 10 10 10 9 8 8 8 8 9 8 9 9 9 9 8 7 6 6 4 7 6 3 3 4 4 8 6 5 5 4 2 2 3 3 3 2 2 2 2 2 3 4 4 3 3 4 4 4 5 4 4 4 3 5
10 10 12 14 14 13 15 13 8 10 11 12 11 11 10 11 12 12 10 8 9 11 12 11 11 9 10 10 10 9 10 11 10 10 9 10 9 9 9 10 9 8 8 7 8 7 7 7 7 5 1 5 5 6 5 5 2 5 6 4 3 2 1 1 1 1 1 2 1 2 2 3 4 4 4 4 4 4 5 4 4 4 4 4 4
7 9 11 9 10 11 12 11 10 12 12 14 11 11 10 12 11 8 10 7 7 6 4 5 5 7 7 8 8 9 10 9 10 10 9 9 9 9 10 9 10 9 9 9 9 9 8 9 10 8 6 0 2 2 5 4 4 3 2 5 3 3 2 3 1 2 0 2 1 2 2 3 3 3 3 4 4 4 4 4 4 4 4 4 3
7 6 7 10 8 10 11 12 12 12 11 12 14 12 11 9 8 4 6 7 6 6 7 6 7 7 9 8 8 8 10 10 9 10 9 10 10 10 9 9 9 10 10 10 10 10 9 8 8 7 7 6 4 5 3 4 2 7 4 1 2 1 2 7 7 3 0 2 2 2 1 2 3 2 3 4 3 4 3 4 4 4 3 3 3
7 8 7 8 8 11 11 12 11 12 11 12 12 9 7 7 6 5 5 5 3 7 7 8 8 8 7 9 10 8 9 8 10 11 10 11 10 10 9 9 9 9 8 9 10 11 11 9 9 8 11 10 8 3 4 3 6 3 3 6 2 1 4 2 4 3 2 3 3 2 2 0 1 1 2 3 2 3 3 3 3 3 3 3 3
8 8 6 7 7 7 7 8 8 7 9 10 11 8 8 7 8 8 8 8 8 8 13 14 9 12 12 5 7 10 9 10 9 10 10 10 10 10 10 10 9 9 9 8 8 7 9 10 11 10 11 6 9 6 5 4 2 2 5 2 1 2 5 2 3 4 1 2 0 1 1 0 0 1 1 2 2 2 2 2 3 3 2 2 2
7 5 5 6 7 6 6 7 8 7 7 8 10 9 8 7 10 11 9 10 10 9 4 3 8 6 6 11 9 9 11 11 10 10 10 9 9 9 10 10 10 9 9 8 9 10 10 10 8 9 9 6 7 9 11 7 2 3 2 2 1 1 1 7 4 3 2 2 3 4 3 2 1 2 2 1 1 1 1 2 2 2 2 1 2
7 6 5 5 6 6 6 7 6 6 6 6 9 10 9 10 11 12 11 10 10 7 6 6 4 6 7 8 8 8 9 10 10 10 10 10 10 9 10 9 10 10 10 10 10 9 8 6 8 8 6 6 10 10 11 7 11 6 3 3 1 1 2 4 2 6 3 4 4 2 1 2 2 3 2 1 0 1 0 1 1 1 1 2 2
8 7 6 5 5 4 5 5 7 7 7 10 10 10 10 9 10 9 10 9 7 5 4 5 6 6 8 6 7 7 7 9 9 10 10 11 10 10 10 10 10 10 10 9 9 9 12 11 11 10 10 8 8 6 7 9 9 8 7 1 1 1 2 3 1 2 3 5 2 4 4 2 2 3 2 1 1 0 1 1 1 0 1 2 2
7 7 6 5 3 2 4 5 7 7 7 10 10 13 12 10 10 12 14 11 8 6 6 8 9 8 9 9 8 7 8 8 8 9 9 10 10 9 10 11 11 10 9 11 10 11 10 11 12 12 10 11 7 6 9 7 7 5 8 7 6 3 1 1 0 2 3 1 3 5 4 7 6 3 2 1 1 1 1 1 1 1 1 2 2
8 8 8 7 5 2 3 5 6 5 7 9 11 13 13 12 12 14 14 13 10 7 7 8 8 8 9 9 8 8 8 9 8 8 9 9 10 10 9 10 9 10 9 10 11 10 10 10 9 10 11 12 9 8 7 6 7 6 7 7 10 11 11 9 9 5 5 4 2 2 2 3 2 3 2 1 1 2 3 2 2 2 1 2 3
Wind_Direction
227 203 184 185 179 183 180 177 176 176 175 175 172 170 164 164 159 156 158 159 158 157 158 158 163 163 160 157 151 146 140 132 129 124 124 122 121 122 121 118 123 118 111 106 103 98 87 84 83 86 81 76 71 63 59 56 51 49 53 56 53 49 48 47 44 41 40 36 37 37 36 45 67 73 75 73 69 64 61 51 38 52 50 53 50
169 193 182 184 185 183 179 181 178 179 177 177 173 171 165 165 162 158 163 167 166 166 166 168 170 170 162 158 155 150 146 139 134 129 124 121 120 120 115 117 118 122 115 105 100 95 92 88 85 83 78 73 71 69 68 62 54 48 48 54 55 51 49 49 47 43 40 40 37 36 33 27 31 78 80 77 70 64 63 58 39 38 51 48 51
140 176 183 183 186 185 180 181 179 179 181 176 174 172 168 167 167 161 166 171 171 171 171 171 171 166 164 162 155 151 145 140 135 128 123 115 103 99 103 108 105 109 108 100 94 94 94 92 88 76 69 68 68 67 68 68 64 56 50 50 55 54 52 50 48 46 44 43 39 36 34 25 17 33 76 80 78 68 60 61 57 49 51 48 48
150 173 178 185 192 184 182 181 181 181 179 179 175 170 172 170 169 166 167 170 173 172 171 171 171 166 164 158 152 146 142 137 131 125 117 112 103 95 91 96 102 105 109 106 104 102 96 90 86 85 84 83 84 83 81 78 74 67 59 55 56 56 54 53 50 50 48 45 42 35 35 27 17 18 58 76 75 74 71 63 59 58 55 51 49
152 168 174 178 183 183 182 176 180 184 179 182 175 174 174 172 172 171 169 170 170 172 170 172 170 167 159 152 147 144 141 137 132 125 121 113 109 103 98 100 107 109 111 113 109 103 94 94 96 97 94 94 92 91 88 85 81 77 71 64 62 63 60 56 54 53 49 47 43 44 36 29 19 357 54 73 77 75 70 64 58 58 55 52 48
157 164 172 177 182 178 179 175 179 182 182 179 178 175 173 174 173 174 174 172 172 171 172 173 167 164 158 151 145 143 141 136 132 125 117 119 110 107 105 106 112 113 110 109 103 95 92 90 93 95 93 93 93 92 89 87 84 81 77 72 70 69 69 64 61 58 58 58 49 48 38 26 20 3 43 76 74 77 71 61 56 56 56 53 49
163 165 168 173 175 171 171 176 176 177 178 175 174 171 172 174 172 174 177 176 173 173 172 169 165 159 152 147 144 141 141 140 129 129 123 118 115 111 112 109 109 111 115 104 97 96 95 93 90 89 92 89 87 85 82 80 79 76 75 74 73 73 71 68 65 62 56 60 56 48 43 24 22 2 6 85 80 70 69 63 59 53 53 52 48
172 170 171 170 166 174 169 174 172 172 172 170 169 170 172 172 172 175 176 176 174 173 169 166 161 155 151 147 142 141 141 141 141 137 130 127 120 125 120 118 116 111 112 104 108 98 100 99 96 95 95 92 86 84 81 77 74 73 70 69 69 69 69 68 66 60 54 61 55 45 36 27 19 16 5 69 82 70 66 63 61 61 57 55 47
178 178 173 171 170 170 173 167 167 167 169 170 168 170 172 170 172 173 173 172 171 170 166 164 157 155 150 147 142 146 144 148 141 133 135 137 135 143 132 129 128 123 122 128 138 108 100 99 98 96 93 89 84 81 79 75 72 71 70 69 66 62 60 59 62 56 57 54 45 43 31 25 13 17 42 66 75 68 62 60 60 55 55 49 47
179 178 183 173 172 173 172 165 165 167 167 168 168 168 169 168 168 170 168 167 166 171 168 165 159 155 150 151 152 153 143 140 143 142 134 133 154 153 147 141 150 142 145 147 137 107 103 98 97 95 93 89 84 80 75 72 69 69 69 67 68 63 57 52 48 48 51 51 50 39 30 359 17 32 61 73 80 77 77 74 72 70 66 55 53
178 179 175 179 188 178 171 168 165 169 165 164 166 168 172 167 171 170 171 169 169 173 166 170 166 163 160 157 165 162 166 154 147 147 147 167 161 168 157 151 151 153 153 145 119 113 108 104 100 96 91 86 82 77 73 71 69 68 68 67 65 64 61 53 45 47 40 39 41 34 13 356 9 62 75 80 86 86 90 90 83 76 70 63 58
180 173 178 179 194 189 177 173 172 177 172 168 168 178 175 171 175 177 176 175 178 179 175 178 175 172 167 171 170 176 159 169 154 185 175 170 171 168 159 154 156 155 136 118 114 111 107 104 100 96 91 86 82 79 76 73 72 71 70 68 64 62 59 55 55 50 39 33 37 18 13 14 14 81 75 76 82 84 73 67 75 70 71 65 59
182 175 181 181 189 196 187 182 179 185 188 174 180 182 184 186 185 191 189 183 183 192 194 194 192 187 192 184 192 192 174 180 193 187 184 179 173 164 160 160 160 142 123 117 115 114 111 107 104 99 95 91 88 84 81 78 76 74 73 70 64 58 56 48 47 49 46 30 34 14 5 9 23 58 86 73 62 69 73 67 66 70 73 69 61
177 185 184 184 187 202 197 193 191 196 195 188 186 191 190 187 195 201 193 202 186 191 203 202 199 194 196 205 179 197 202 197 188 180 178 175 174 170 170 169 155 133 127 124 120 118 117 113 109 105 101 97 92 89 86 84 80 77 74 71 66 61 54 52 43 42 41 35 28 15 7 356 44 48 66 78 65 64 75 72 66 62 65 69 66
175 189 187 190 194 203 204 200 193 205 203 196 187 199 198 202 203 201 203 205 212 193 201 206 209 213 208 203 196 194 179 180 181 182 174 171 175 172 169 159 142 136 132 130 127 123 120 117 112 109 104 100 96 92 89 85 81 77 74 70 65 61 53 59 45 42 39 30 21 12 8 1 25 51 56 69 66 69 67 66 65 62 61 64 66
175 180 190 207 208 212 207 208 203 205 205 192 198 206 222 213 211 195 206 211 209 207 201 207 207 207 205 201 194 185 184 179 185 182 174 173 168 163 157 152 147 142 137 134 129 126 123 119 115 111 107 103 98 93 89 85 81 76 73 70 66 62 56 55 60 41 44 34 17 11 3 0 15 58 61 58 57 61 66 64 60 59 58 61 64
169 174 182 204 216 217 213 211 213 210 209 198 193 206 218 215 210 199 203 205 210 209 195 204 201 202 198 193 184 179 179 182 183 180 176 176 171 163 159 155 150 147 142 139 134 130 124 120 117 114 110 106 101 98 93 87 82 77 72 69 65 63 59 56 62 48 44 35 16 8 4 12 28 49 52 51 45 44 58 60 59 56 54 55 57
178 178 196 195 205 211 213 215 213 212 200 204 198 203 207 209 206 203 197 194 196 198 193 191 196 194 188 187 175 171 177 184 182 180 178 175 168 162 158 155 153 149 144 139 132 127 123 118 116 113 109 105 100 97 92 89 85 81 76 69 64 59 56 54 59 51 44 37 27 5 15 14 28 41 47 43 43 44 51 51 54 57 58 57 57
185 194 207 200 205 201 206 208 213 205 197 197 197 204 202 206 203 205 195 181 187 187 185 178 181 185 183 167 158 161 176 179 180 180 178 171 158 157 161 156 152 146 139 133 130 127 124 120 116 113 109 104 100 93 89 85 82 79 74 70 66 62 54 49 49 45 36 41 28 13 23 16 33 50 48 44 40 47 49 51 53 56 59 62 63
214 207 211 215 202 201 200 203 201 200 194 185 197 195 199 196 200 197 190 177 182 185 176 168 170 174 163 150 149 155 167 174 175 176 174 161 154 160 162 155 149 143 139 136 131 129 127 124 119 114 110 106 101 96 93 90 85 79 75 70 67 60 54 55 50 49 41 38 19 20 25 25 29 47 46 44 47 49 49 49 52 55 57 60 64
228 222 215 207 206 202 200 198 199 197 191 184 186 193 188 185 194 185 181 176 173 169 167 154 154 156 148 143 141 143 149 160 166 160 153 150 151 163 159 156 148 145 142 139 136 134 130 126 121 113 107 100 93 91 92 93 88 83 78 75 68 59 56 53 44 51 45 33 16 30 29 37 35 48 52 52 52 53 53 52 53 55 56 58 58
211 218 220 213 207 209 203 194 191 201 187 183 182 184 185 177 175 175 172 171 166 161 154 145 143 133 136 135 125 129 134 135 136 141 128 149 160 164 158 156 150 144 142 140 137 132 128 123 119 113 107 99 91 82 78 79 78 81 81 80 71 68 60 57 52 54 40 39 11 31 34 43 41 48 57 58 57 57 60 60 59 61 61 60 57
218 216 216 208 208 203 203 202 199 184 190 186 183 177 181 166 168 159 161 166 160 149 136 139 124 131 127 127 133 130 132 128 132 136 131 150 160 160 157 151 147 142 141 137 134 129 124 119 112 105 98 92 89 84 85 80 80 74 75 66 71 66 70 63 66 60 46 30 11 33 39 48 46 51 63 62 65 64 65 66 64 60 63 58 60
216 207 204 202 205 206 204 201 197 189 180 184 182 176 168 162 158 152 158 154 150 134 132 132 136 133 134 139 138 134 131 133 133 133 134 148 154 152 145 138 136 134 132 131 126 120 115 105 99 94 89 82 90 88 89 85 80 74 68 65 65 62 57 56 60 58 54 18 23 35 38 49 50 53 65 69 73 69 70 72 68 68 62 63 60
206 195 202 207 205 205 200 202 196 193 190 185 182 183 152 153 154 169 162 163 146 141 140 141 145 142 143 146 138 136 136 139 141 137 134 126 113 92 93 91 89 88 79 82 77 69 74 92 94 87 89 99 95 90 93 89 82 76 69 66 70 62 60 53 51 53 45 25 30 39 37 46 53 51 64 74 80 74 77 78 74 71 65 65 64
170 194 208 203 202 201 202 196 196 196 194 190 192 177 168 199 197 172 168 163 156 150 151 155 151 152 153 147 142 141 147 142 145 145 138 140 127 121 110 107 113 107 87 105 101 101 110 110 104 100 94 92 86 86 77 85 94 83 79 73 75 76 73 63 58 55 44 29 27 37 42 48 58 55 66 75 81 82 81 83 81 71 70 66 66
195 213 195 204 195 197 202 197 198 194 198 192 186 182 194 199 197 176 175 175 165 160 168 163 160 153 155 155 154 158 154 154 154 157 152 155 143 140 136 133 133 126 131 129 124 124 123 115 107 99 100 95 90 84 82 77 79 87 84 79 75 79 81 76 65 65 53 44 14 28 46 56 60 60 74 78 85 89 79 86 82 77 66 62 64
203 212 199 192 185 193 195 195 198 192 193 190 189 190 194 195 190 178 190 167 168 176 172 170 151 163 162 164 162 161 159 161 166 166 162 158 154 144 138 141 138 140 143 141 134 133 122 110 110 107 105 94 97 88 85 80 74 71 85 77 67 66 63 64 66 57 59 54 37 27 46 60 59 60 77 79 83 85 89 82 83 78 67 65 65
226 208 203 196 191 184 187 196 195 196 193 187 193 191 187 192 187 188 192 176 181 180 170 158 170 166 168 167 166 163 167 166 168 170 154 163 150 155 157 154 150 149 156 157 154 139 128 127 121 118 111 110 107 101 97 87 82 76 83 87 76 66 62 62 59 50 55 57 36 29 37 56 66 67 76 82 82 80 80 83 87 82 72 66 68
220 209 198 205 181 181 191 194 193 193 190 187 196 191 192 188 193 194 186 183 186 173 161 175 173 170 174 178 175 171 172 169 166 163 166 163 161 156 161 163 164 159 166 161 166 147 136 127 121 121 123 121 114 109 111 99 88 90 87 100 88 79 71 66 57 53 59 54 39 42 30 48 61 71 72 78 78 79 81 85 84 79 72 68 72
213 217 207 201 186 182 197 188 192 191 186 194 193 194 187 193 192 186 182 191 177 167 176 175 174 181 177 174 177 179 169 168 166 164 169 160 161 164 170 160 166 170 173 152 149 141 126 130 140 140 139 132 120 118 115 110 106 105 106 109 100 104 93 82 79 69 61 51 53 46 30 38 50 59 74 75 77 78 76 75 77 75 70 66 79
205 220 211 184 183 198 190 188 190 189 191 196 194 192 193 195 191 188 192 190 168 178 177 177 180 181 175 178 180 178 173 168 166 165 167 163 166 170 166 172 173 165 166 155 141 131 123 116 109 102 103 110 117 121 108 114 117 112 116 101 94 91 92 91 91 77 66 61 61 53 55 41 48 51 54 69 75 74 74 74 74 72 67 67 70
220 224 207 187 201 193 189 193 188 190 194 194 193 194 189 193 192 194 190 189 179 176 182 184 181 179 177 180 180 177 178 172 172 168 167 166 163 165 171 178 167 162 153 146 129 127 126 126 116 115 110 106 116 117 112 109 116 115 113 94 101 88 82 88 85 84 80 76 67 64 61 57 58 49 47 53 64 68 69 68 67 67 65 65 67
216 207 192 209 203 196 196 185 192 197 200 193 193 193 195 195 195 193 193 185 183 183 188 184 179 177 178 179 179 181 177 175 166 168 167 166 167 174 171 169 163 159 149 148 143 146 139 135 134 134 139 149 151 146 147 134 119 121 114 118 104 104 107 96 85 83 90 86 77 71 72 71 62 61 50 47 51 62 63 63 65 64 65 62 64
211 197 204 215 192 200 189 192 193 197 197 198 198 201 196 193 189 187 184 185 184 190 184 179 180 180 177 182 183 180 177 171 173 166 171 170 169 171 176 168 156 156 153 157 145 142 141 146 148 150 151 163 157 155 167 141 143 132 124 135 124 122 116 109 107 97 89 89 82 77 71 69 69 67 59 65 53 55 59 59 59 60 61 62 61
207 209 213 200 202 199 194 202 190 197 197 200 199 197 196 194 193 194 189 186 189 193 186 185 183 178 183 181 182 178 174 175 174 173 169 176 174 172 172 156 159 154 151 148 148 153 154 147 160 157 155 172 163 147 165 137 137 123 125 120 122 124 118 117 115 111 101 105 93 85 76 75 69 72 66 66 64 58 56 58 57 54 56 57 59
214 210 209 202 208 200 199 200 196 197 197 195 194 198 193 195 195 192 190 187 197 194 188 183 185 186 184 180 179 181 179 178 177 175 170 172 175 171 163 161 157 156 152 153 159 157 156 152 160 186 217 160 169 143 140 136 122 110 108 101 100 119 113 113 115 117 124 106 102 95 88 78 79 78 73 72 67 62 52 52 53 49 48 54 55
212 209 206 201 205 198 201 204 206 198 196 196 195 191 191 186 188 190 192 198 203 199 191 184 192 188 182 188 178 184 182 178 175 175 176 176 172 165 157 160 158 153 151 158 162 155 158 163 158 181 189 171 165 157 142 128 113 103 90 86 94 94 98 105 111 118 119 112 106 98 93 93 85 75 74 71 69 63 55 47 45 44 40 47 51
214 206 205 206 199 198 199 202 200 192 195 192 189 186 179 180 156 174 194 201 201 200 189 194 195 187 194 184 181 188 181 179 177 174 175 171 168 165 162 162 159 155 153 158 158 166 163 170 170 155 157 219 160 149 140 127 106 88 81 74 81 79 90 89 96 102 99 106 109 109 109 93 90 77 74 71 66 62 54 48 44 42 38 39 45
217 206 207 203 203 202 201 201 197 189 178 173 170 178 175 181 179 170 200 206 194 195 197 200 186 196 191 189 187 189 180 179 179 177 175 169 168 167 161 161 162 158 159 162 171 177 173 168 178 161 147 122 86 123 141 122 90 82 81 75 63 82 84 85 78 80 91 99 109 125 113 112 95 88 80 78 73 64 58 52 50 48 42 38 41
226 210 204 207 205 201 190 203 194 184 178 175 181 180 181 177 192 201 205 184 194 189 196 199 198 197 187 191 186 186 178 178 181 176 179 170 168 157 158 167 166 168 169 179 170 164 166 168 148 160 156 150 148 164 176 145 124 90 77 81 83 52 90 68 72 78 86 105 120 122 125 116 104 100 98 90 83 70 65 56 54 49 42 38 36
226 211 210 210 206 200 201 203 181 188 192 189 186 188 189 190 184 194 188 183 183 191 199 194 200 196 193 190 190 182 180 182 178 177 174 171 165 166 169 169 170 174 169 145 152 160 158 160 159 150 254 175 154 179 181 159 148 155 150 138 89 119 190 315 32 58 114 123 137 131 134 121 114 117 119 105 88 80 70 65 57 53 46 38 35
243 216 223 214 207 205 209 196 193 193 198 196 189 197 191 195 192 188 187 186 199 206 216 205 195 200 197 196 191 190 183 180 176 178 175 173 171 169 176 167 174 162 158 165 165 171 174 171 179 171 153 108 101 168 197 255 128 108 108 123 158 157 203 237 216 244 228 187 152 132 131 118 111 106 115 104 93 85 80 68 63 55 50 42 37
258 256 232 222 216 215 208 200 200 200 197 199 202 203 197 194 196 132 168 183 178 161 190 181 187 179 202 192 199 189 186 186 172 173 178 181 175 176 168 174 175 177 170 162 172 176 171 177 183 192 162 145 188 182 221 200 194 153 165 250 133 194 170 217 199 174 209 205 184 138 127 129 134 121 107 90 95 91 87 77 65 63 55 52 41
256 249 235 223 216 217 211 204 201 200 200 197 197 186 165 159 142 84 104 113 93 162 176 207 187 188 188 194 195 184 188 182 180 184 181 177 176 176 173 174 175 179 174 172 175 182 180 179 176 174 191 178 162 167 190 184 226 298 133 130 113 224 233 86 140 209 165 190 198 161 134 130 142 114 86 86 98 90 86 77 62 63 58 60 48
261 253 242 238 234 231 216 211 210 202 203 195 188 173 180 171 161 166 175 180 193 182 198 197 166 189 196 138 175 192 184 191 186 186 187 179 178 177 172 170 176 177 184 182 172 164 178 180 192 190 191 220 163 153 169 201 238 209 246 335 322 193 159 175 162 200 149 257 203 212 184 166 292 188 109 90 72 93 76 71 55 52 57 56 57
274 283 266 246 237 232 208 205 205 200 195 188 180 178 183 187 194 201 202 200 206 217 212 167 192 189 172 186 183 176 190 187 186 185 187 185 180 179 178 178 175 175 174 171 177 185 182 190 175 192 200 167 157 173 181 171 136 235 214 229 209 262 217 140 197 84 192 170 212 204 185 168 216 250 229 182 82 139 108 73 57 44 60 66 64
330 330 295 281 245 231 205 203 195 183 169 174 181 187 190 192 198 207 211 216 219 224 185 203 179 181 189 187 181 186 184 189 182 187 185 182 182 183 183 178 176 179 174 183 182 181 178 180 186 195 184 193 194 186 172 167 176 173 162 173 73 61 26 18 76 172 146 168 186 145 232 201 203 219 240 237 215 228 178 89 45 52 74 89 76
354 336 305 281 261 237 215 197 195 177 173 171 178 192 199 196 201 205 216 222 223 220 155 164 177 175 190 180 187 182 182 192 188 185 189 186 187 184 179 181 180 179 182 183 185 177 181 174 176 187 195 195 204 199 156 183 199 169 148 153 108 66 36 34 61 31 158 177 177 179 178 137 223 206 218 164 102 128 291 323 338 346 153 111 96
339 333 328 318 293 207 191 201 210 186 174 178 183 188 191 191 203 210 216 219 207 193 167 177 177 169 189 188 184 179 185 184 191 192 189 192 188 183 185 185 185 180 184 188 178 178 180 185 188 189 187 193 192 199 193 184 196 166 187 146 153 133 85 113 64 119 32 4 182 189 186 173 193 176 181 181 16 262 288 292 267 233 178 130 113
353 357 353 353 344 314 207 210 222 194 184 185 185 194 196 195 202 207 213 218 208 193 186 195 173 176 196 187 185 185 178 190 184 189 194 191 194 190 188 190 187 187 188 186 189 181 184 186 184 187 193 193 189 191 202 185 185 178 185 182 176 173 173 176 183 187 170 157 134 220 181 210 185 156 170 15 186 268 279 267 232 196 176 139 134